Regional Weather Roundup
Issued by NWS

Home | Current Version | Previous Version | Graphics & Text | Print | Product List | Glossary On
Versions: 1 2 3 4 5 6 7 8 9 10 11 12 13 14 15 16 17 18 19 20 21 22 23 24 25 26 27 28 29 30 31 32 33 34 35 36 37 38 39 40 41 42 43 44 45 46 47 48 49 50
000
ASUS43 KLSX 232007
RWRMO

WEATHER SUMMARY FOR MISSOURI
NATIONAL WEATHER SERVICE SPRINGFIELD MO
300 PM CDT THU OCT 23 2014

NOTE: "FAIR" INDICATES FEW OR NO CLOUDS BELOW 12,000 FEET WITH NO
       SIGNIFICANT WEATHER AND/OR OBSTRUCTIONS TO VISIBILITY.
       CURRENT SKY AND/OR WEATHER CONDITIONS ARE NOT AVAILABLE FOR
       CHILLICOTHE AND FARMINGTON.

MOZ001>031-035>038-043-044-053-054-232100-
...NORTHERN AND WESTERN MISSOURI...

CITY           SKY/WX    TMP DP  RH WIND       PRES   REMARKS
KANSAS CTY INT CLOUDY    63  61  93 SW10      30.06F
KANSAS C DTWN  CLOUDY    65  60  84 SW7       30.06S
LEE`S SUMMIT   CLOUDY    64  58  80 SW9       30.07F
ST JOSEPH      PTSUNNY   72  60  66 SW8       30.04F
CHILLICOTHE      N/A     65  58  78 S6        30.06F
KIRKSVILLE     CLOUDY    65  57  75 SW8       30.05F

$$
MOZ066>068-077>081-088>096-101>105-232100-
...SOUTHWEST MISSOURI...

CITY           SKY/WX    TMP DP  RH WIND       PRES   REMARKS
SPRINGFIELD    LGT RAIN  61  56  83 S6        30.12F
JOPLIN         PTSUNNY   62  57  83 S10       30.11F

$$
MOZ032>034-039>042-045>050-055>058-069>072-232100-
...CENTRAL MISSOURI...

CITY           SKY/WX    TMP DP  RH WIND       PRES   REMARKS
COLUMBIA       CLOUDY    61  51  70 S9        30.09F
JEFFERSON CITY PTSUNNY   61  48  62 S9        30.10F
ROLLA          CLOUDY    60  46  59 SW8       30.11F
SEDALIA        PTSUNNY   67  56  67 SW13      30.09F
WHITEMAN AFB   PTSUNNY   66  59  76 S12       30.06F
OSAGE BEACH    CLOUDY    63  50  63 SW5       30.11F

$$
MOZ051-052-059>065-232100-
...EAST CENTRAL MISSOURI...

CITY           SKY/WX    TMP DP  RH WIND       PRES   REMARKS
ST LOUIS INTL  PTSUNNY   64  45  49 SE6       30.12F
SPIRIT OF STL  CLOUDY    64  45  49 S8        30.10F
ST CHARLES     PTSUNNY   63  45  51 S8        30.11F

$$
MOZ072>076-082>087-097>100-106>115-232100-
...SOUTH CENTRAL AND SOUTHEAST MISSOURI...

CITY           SKY/WX    TMP DP  RH WIND       PRES   REMARKS
CAPE GIRARDEAU CLOUDY    58  44  60 SW5       30.16F
FARMINGTON     CLOUDY    61  45  55 SE8       30.15F
POPLAR BLUFF   CLOUDY    58  43  57 CALM      30.15F
WEST PLAINS    CLOUDY    57  45  64 S6        30.16F

$$



USA.gov is the U.S. government's official web portal to all federal, state and local government web resources and services.